User: anonymous   Login
Location: Plum
(40.5000°N, 79.7500°W)
Time: 12:44:50
(UTC-04:00)
Language:

Cosmos 1825 - Orbit

View from above orbital plane
View from above orbital plane
View from above satellite
View from above satellite

Ground track
Ground track

The orbit data is extracted from the following two-line orbital elements,

1 17566U 87024A   17202.24640763 +.00000611 +00000-0 +27869-4 0  9994
2 17566 082.5045 256.3906 0005581 096.5141 263.6729 15.18726764658727
Epoch (UTC): 21 July 2017 05:54:49
Eccentricity: 0.0005581
inclination: 82.5045°
perigee height: 506 km
apogee height: 513 km
right ascension of ascending node: 256.3906°
argument of perigee: 96.5141°
revolutions per day: 15.18726764
mean anomaly at epoch: 263.6729°
orbit number at epoch: 65872

The dashed part of the orbit path shows where the satellite is in the earth's shadow,  

DLR